Location: Stockholm
(59.3333°N, 18.0500°E)
Time: 13:31:14
(UTC+02:00)

ISS - Pass Details

Date: 15 May 2021
Orbit: 417 x 422 km, 51.6° (Epoch: 14 May)

Event Time Altitude Azimuth Distance (km) Brightness Sun altitude
Rises 23:40:17 0° 234° (SW) 2,362 -0.2 -10.5°
Reaches altitude 10° 23:42:43 10° 217° (SW) 1,500 -1.3 -10.6°
Maximum altitude 23:45:15 20° 168° (SSE) 1,038 -2.4 -10.7°
Drops below altitude 10° 23:47:48 10° 119° (ESE) 1,504 -1.3 -10.7°
Sets 23:50:15 0° 102° (ESE) 2,371 -0.2 -10.8°
